Location: St. Louis
(38.6270°N, 90.1994°W)
Time: 10:23:38
(UTC-06:00)

Tiros 1 despin weight - Pass Details

Date: 05 December 2021
Orbit: 592 x 641 km, 48.2° (Epoch: 25 January)

Event Time Altitude Azimuth Distance (km) Brightness Sun altitude
Rises 19:31:42 0° 291° (WNW) 2,826 ? -32.9°
Reaches altitude 10° 19:34:23 10° 276° (W) 1,925 ? -33.5°
Enters shadow 19:36:45 20° 245° (WSW) 1,390 ? -33.9°
